Regional Weather Roundup
Issued by NWS

Home | Current Version | Previous Version | Graphics & Text | Print | Product List | Glossary Off
Versions: 1 2 3 4 5 6 7 8 9 10 11 12 13 14 15 16 17 18 19 20 21 22 23 24 25 26 27 28 29 30 31 32 33 34 35 36 37 38 39 40 41 42 43 44 45 46 47 48 49 50

000
ASUS43 KMKX 302300
RWRWI

WISCONSIN REGIONAL WEATHER ROUNDUP
NATIONAL WEATHER SERVICE MILWAUKEE/SULLIVAN WI
600 PM CDT TUE JUN 30 2015

NOTE: "FAIR" INDICATES FEW OR NO CLOUDS BELOW 12,000 FEET WITH NO
SIGNIFICANT WEATHER AND/OR OBSTRUCTIONS TO VISIBILITY.

WIZ001-002-006>008-014>016-023>028-010000-
NORTHWEST WISCONSIN

CITY           SKY/WX    TMP DP  RH WIND       PRES   REMARKS
SUPERIOR ARPT  MOSUNNY   60  50  68 NE7       29.97S
ASHLAND        MOSUNNY   61  51  70 N9        29.98S
HAYWARD        PTSUNNY   64  48  56 NE9       29.97R
SIREN          PTSUNNY   70  50  49 E6        29.94F
CUMBERLAND     PTSUNNY   68  50  52 N10       29.94S
RICE LAKE      PTSUNNY   69  52  55 N8        29.95S
CHETEK         PTSUNNY   68  53  57 N8        29.93F
LADYSMITH      PTSUNNY   66  50  56 N10G16    29.95S
EAU CLAIRE     NOT AVBL
MENOMONIE      MOSUNNY   73  52  46 N12       29.92S
NEW RICHMOND   MOSUNNY   69  54  57 NE6       29.93F
OSCEOLA        MOSUNNY   72  56  57 N5        29.96S
$$

WIZ003>005-009-010-017-018-010000-
NORTH CENTRAL WISCONSIN

CITY           SKY/WX    TMP DP  RH WIND       PRES   REMARKS
MANITOWISH WTR SUNNY     60  47  63 N9        29.95S
ARBOR VITAE    SUNNY     62  49  62 N8        29.95S
WOODRUFF       SUNNY     62  49  62 N8        29.95S
RHINELANDER    SUNNY     61  47  59 N7        29.94F
EAGLE RIVER    SUNNY     59  45  59 N13       29.95S
LAND O LAKES   MOSUNNY   57  46  67 N10       29.96S
PHILLIPS       PTSUNNY   63  48  58 N9        29.94R
TOMAHAWK       SUNNY     64  47  55 N8        29.93F
MEDFORD        PTSUNNY   65  51  58 N12       29.92S
MERRILL        MOSUNNY   65  51  62 N10       29.92F
$$

WIZ029-030-035-036-043>047-010000-
CENTRAL WISCONSIN

CITY           SKY/WX    TMP DP  RH WIND       PRES   REMARKS
WAUSAU         MOSUNNY   65  50  58 N10       29.89F
MOSINEE        CLOUDY    64  55  72 N14       29.92R
MARSHFIELD     CLOUDY    67  51  56 N10       29.90F
STEVENS POINT  PTSUNNY   65  53  64 N12G18    29.89F
WAUPACA        CLOUDY    72  57  58 N9        29.87S
WAUTOMA        NOT AVBL
WISC RAPIDS    MOSUNNY   69  52  54 N16       29.90S
CAMP DOUGLAS   NOT AVBL
$$

WIZ011>013-019>022-031-037>040-048>050-010000-
NORTHEAST WISCONSIN

CITY           SKY/WX    TMP DP  RH WIND       PRES   REMARKS
ANTIGO         PTSUNNY   62  53  70 N12       29.91S
SHAWANO        CLOUDY    68  55  62 N8        29.89R
OCONTO         CLOUDY    64  54  70 N7        29.88R
STURGEON BAY   CLOUDY    61  52  72 N16       29.90R
GREEN BAY      CLOUDY    68  56  65 N14       29.87R
MANITOWOC      CLOUDY    63  55  77 MISG      29.87R
APPLETON       PTSUNNY   68  55  64 N12       29.87R
CLINTONVILLE   CLOUDY    68  54  60 N10       29.87R
OSHKOSH        MOSUNNY   71  57  61 N14       29.85S
$$

WIZ032>034-041-042-053>061-010000-
SOUTHWEST WISCONSIN

CITY           SKY/WX    TMP DP  RH WIND       PRES   REMARKS
LA CROSSE      MOSUNNY   76  52  43 N13       29.88S
SPARTA         MOSUNNY   72  52  48 N8        29.89S
VIROQUA        MOSUNNY   71  56  59 NW10      29.90S
BOSCOBEL       SUNNY     76  58  53 N5        29.87S
PRAIRIE DU CHI MOSUNNY   74  56  53 NW6       29.87S
PLATTEVILLE    MOSUNNY   75  60  59 NW7       29.87S
$$

WIZ056-057-062-063-064-067-068-010000-
SOUTH CENTRAL WISCONSIN

CITY           SKY/WX    TMP DP  RH WIND       PRES   REMARKS
REEDSBURG      PTSUNNY   72  57  59 N13       29.87R
BARABOO/DELLS  PTSUNNY   73  52  47 N9        29.87R
LONE ROCK      NOT AVBL
MINERAL POINT  PTSUNNY   77  57  50 NW9       29.87S
MADISON        PTSUNNY   74  58  57 N7        29.85R
MIDDLETON      CLOUDY    74  57  53 N8        29.86S
WATERTOWN      MOSUNNY   73  57  57 N9G16     29.84R
MONROE         MOSUNNY   75  59  57 NW7       29.86R
JANESVILLE     PTSUNNY   75  57  53 N7        29.84S
$$

WIZ051-052-058>065-066-070>072-010000-
SOUTHEAST WISCONSIN

CITY           SKY/WX    TMP DP  RH WIND       PRES   REMARKS
MILWAUKEE      MOSUNNY   61  55  81 NE9       29.86R
WAUKESHA       PTSUNNY   68  59  73 E8        29.86R
MILWAUKEE/TIMM NOT AVBL
RACINE         SUNNY     60  54  80 NE12      29.88R
BURLINGTON     MOSUNNY   69  60  73 E5        29.85R
KENOSHA        SUNNY     66  58  75 E6        29.86R
FOND DU LAC    PTSUNNY   71  58  63 NE13      29.86R
SHEBOYGAN      CLOUDY    61  56  83 NE10      29.87R
WEST BEND      PTSUNNY   70  55  60 N7        29.85R
JUNEAU         CLOUDY    71  58  64 N8        29.86R
$$

LSZ147-162-010000-
LAKE SUPERIOR

STATION/POSITION TIME  TEMP    WIND        PRES    WAVE
                       AIR SEA DIR/SP/G            HT/PER
                 (UTC) (F)     (DEG/KT/KT) (MB)    (FT/S)
W MID LAKE BUOY  2150   42 39  300/  6/  6 1016.0S   1/ 6
DEVILS ISLAND    2200   54     130/  7/  9 1015.8F
SAXON HARBOR     2240   55        CALM     1014.9F
$$

LMZ867-665-643>646-010000-
LAKE MICHIGAN

STATION/POSITION TIME  TEMP    WIND        PRES    WAVE
                       AIR SEA DIR/SP/G            HT/PER
                 (UTC) (F)     (DEG/KT/KT) (MB)    (FT/S)
CHAMBERS ISLAND  2200   63     340/ 17/ 19 1011.2S
N MID LAKE BUOY  2150   50 42  320/ 14/ 16 1010.9R   2/ 4
NORTHPORT PIER   2200   57     350/ 21/ 24 1011.2S
SISTER BAY       2214   60      40/ 17/ 19   N/A
ALGOMA LAKESHORE 2210           70/  6/  9   N/A
KEWAUNEE LAKESHO 2200   59      50/  7/  8 1010.3R
SHEBOYGAN LAKESH 2200   56      50/  5/  6 1010.9R
PORT WASHINGTON  2200   61      50/ 10/ 12 1011.5
ATWATER BUOY     2200   58      30/  6/ 10 1012.3R
MILWAUKEE LAKESH 2200   57      40/  7/  8   N/A
KENOSHA   LAKESH 2200   58      30/  6/ 10 1011.2R
$$

TC  - TEMPERATURE IN CELSIUS
VSB - VISIBILITY IN STATUTE MILES
WCI - WIND CHILL INDEX
HX  - HEAT INDEX



USA.gov is the U.S. government's official web portal to all federal, state and local government web resources and services.